Terminal Aerodrome Forecast
Issued by NWS Mt. Holly, NJ

Home | Current Version | Previous Version | Text Only | Print | Product List | Glossary On
Versions: 1 2 3 4 5 6 7 8 9 10 11 12 13 14 15 16 17 18 19 20 21 22 23 24 25 26
000
FTUS41 KPHI 010134 AAA
TAFPHL
TAF AMD
KPHL 010134Z 0102/0206 VRB03KT P6SM SCT250
     FM010800 VRB02KT P6SM OVC100
     FM011300 12005KT P6SM OVC050
     FM011700 14004KT 6SM -SN OVC030
     FM011900 15005KT 2SM -SN OVC010
     FM012200 16006KT 3SM -FZRAPL OVC005
     FM020400 17005KT 4SM -RA BR OVC007=

USA.gov is the U.S. government's official web portal to all federal, state and local government web resources and services.